Weather in Veendam

Netherlands     53°06′20″N   6°51′45″E
temp.,
°C
wind,
m/s
gust,
m/s
humid.,
%
clouds,
%
prec.,
mm/h
press.,
hPa
HPBL,
m
8 march, mon
mon801:00+4nnw3695100 0.3 1023344
04:00+3n249099 0.1 1022202
07:000ne229189 0.1 102328
10:00+3ese227534 0.0 1024355
13:00+6sse115739 0.0 1023882
16:00+6wsw1262100 0.0 1022838
19:00+5sw2380100 0.0 1021270
22:00+3sw4793100 0.2 1020490
9 march, tue
tue901:00+3s6996100 2.6 1019478
04:00+4ssw5996100 3.3 1016487
07:00+4wsw4697100 5.5 1016300
10:00+7w348590 0.3 1016385
13:00+8nw237790 0.6 1017400
16:00+8wnw227596 0.3 1016585
19:00+5nw349093 0.7 1017136
22:00+4wnw239392 0.0 1018128
10 march, wed
wed1001:00+2wsw359748 0.0 1018108
04:00+1ssw339514 0.0 101761
07:00+4s489445 0.0 1017284
10:00+5ssw61087100 0.0 1016454
13:00+8ssw71274100 0.0 1015995
16:00+8ssw81369100 0.0 10131416
19:00+6ssw81584100 1.2 10101109
22:00+6ssw101882100 1.1 10071003
11 march, thu
thu1101:00+7ssw111989100 4.1 1002848
04:00+8ssw112086100 0.1 998999
07:00+10sw112187100 0.9 9951161
10:00+10wsw11226990 0.6 9951994
13:00+10wsw14236478 0.8 9952076
16:00+9wsw111966100 0.8 9961758
19:00+7wsw10187299 1.3 9981352
22:00+6wsw91674100 0.5 10001175
12 march, fri
fri1201:00+5wsw8168097 1.0 1002936
04:00+4wsw8158222 0.1 1003861
07:00+4wsw7158211 0.1 1004798
10:00+7wsw10157054 0.0 10051533
13:00+9wsw10165968 0.3 10051925
16:00+8sw10177698 0.3 10031457
19:00+6wsw8149099 3.0 10011025
22:00+5sw61487100 0.7 1001907